Location: Batesville
(34.7480°N, 83.6110°W)
Time: 09:20:56
(UTC-04:00)

OTV 5 (USA 277) - Visible Passes

Search period start: 26 April 2018 00:00
Search period end: 06 May 2018 00:00
Orbit: 308 x 325 km, 54.5° (Epoch: 25 April)

Date Brightness Start Highest point End Pass type
(mag) Time Alt. Az. Time Alt. Az. Time Alt. Az.
03 May ? 22:17:22 10° NNW 22:18:25 17° N 22:18:25 17° N visible
04 May ? 22:31:14 10° NW 22:32:14 20° NW 22:32:14 20° NW visible
05 May ? 21:12:14 10° N 21:13:43 14° NE 21:15:13 10° ENE visible
05 May ? 22:45:43 10° WNW 22:46:07 13° WNW 22:46:07 13° WNW visible
